Location: Aboncourt
(47.7710°N, 5.9826°E)
Time: 03:25:11
(UTC+00:00)

BREEZE M DEB (TANK) - Pass Details

Date: 05 July 2020
Orbit: 285 x 14546 km, 49.5° (Epoch: 02 August)

Event Time Altitude Azimuth Distance (km) Brightness Sun altitude
Rises 21:19:35 0° 288° (WNW) 2,676 7.2 -12.7°
Reaches altitude 10° 21:22:14 10° 276° (W) 1,325 5.3 -13.0°
Maximum altitude 21:24:23 29° 211° (SSW) 561 2.6 -13.2°
Enters shadow 21:24:44 28° 190° (S) 583 2.6 -13.2°
